Theta_e
345 344 343 345 346 347 345 345 346 345 345 345 344 346 347 345 343 340 344 343 341 340 338 339 341 340 339 340 342 342 341 341 342 343 342 342 340 338 341 340 348 348 347
343 344 344 345 344 342 343 344 344 345 345 346 346 346 346 347 348 344 344 343 344 341 342 343 342 340 338 337 340 342 340 343 345 342 340 336 338 339 343 344 347 345 334
344 345 345 346 344 341 339 341 346 343 346 345 346 345 344 345 344 343 346 344 344 343 345 348 347 343 341 340 343 344 345 346 348 348 347 344 338 335 334 333 331 328 330
343 346 345 343 343 342 342 340 341 341 345 345 347 347 346 346 344 342 343 343 343 344 343 343 346 345 345 346 346 346 349 349 350 350 346 348 348 347 347 346 333 334 333
337 336 331 336 337 339 341 341 341 341 342 343 344 346 348 346 348 345 348 348 348 348 348 346 344 343 344 346 345 343 344 346 349 347 346 346 348 349 349 350 348 343 333
342 338 333 338 340 341 340 340 343 342 346 343 342 342 343 349 346 349 349 347 347 348 347 346 346 348 349 349 349 349 348 348 347 348 348 347 349 349 348 347 347 347 343
332 334 334 340 342 341 342 343 344 344 344 343 344 345 344 344 346 347 345 345 344 343 343 342 341 344 348 348 348 348 349 350 348 346 344 344 342 341 339 339 338 338 337
339 339 339 339 340 339 337 337 337 335 336 340 342 343 343 344 343 343 344 345 346 344 343 343 344 342 343 344 344 343 344 344 343 343 343 342 342 343 344 344 342 344 342
331 332 332 334 334 334 334 335 336 337 335 339 342 341 340 342 343 343 344 344 345 346 345 344 344 344 344 345 346 346 346 346 346 346 346 347 348 348 349 348 347 348 347
322 324 327 327 329 329 329 330 331 332 334 335 335 334 333 336 339 340 341 341 341 342 344 345 345 345 345 346 347 348 348 348 348 349 348 347 349 348 349 349 349 349 350
315 315 315 315 316 316 318 320 319 322 326 327 328 330 334 335 332 331 335 339 340 340 341 344 345 345 346 346 346 347 347 347 347 347 347 348 347 347 347 347 347 348 349
309 309 309 309 310 312 313 314 316 317 319 322 325 326 326 327 330 326 327 328 330 334 327 325 332 338 340 341 342 343 343 343 343 343 344 344 343 343 345 346 346 345 345
305 305 306 306 306 307 309 309 310 311 314 317 320 323 325 328 328 327 325 323 322 321 321 321 323 323 324 326 325 326 329 330 330 331 333 336 334 335 341 344 344 344 345
303 303 303 304 304 305 305 306 308 309 310 311 313 316 318 319 322 323 322 322 321 320 320 320 320 321 321 322 323 323 322 321 322 322 321 322 322 324 329 334 336 339 341
303 303 303 304 304 304 305 305 306 306 307 308 309 310 311 312 314 315 317 318 318 318 318 317 318 318 319 320 320 320 323 323 321 321 321 321 321 322 323 336 341 340 342
302 303 303 303 304 304 304 305 305 306 307 307 308 308 309 309 309 311 312 314 316 316 317 317 317 318 318 318 318 317 320 322 321 318 318 317 316 316 318 326 332 341 341
302 302 303 303 302 302 302 302 302 302 303 303 304 305 305 306 306 307 308 309 310 310 311 312 313 315 316 318 317 316 318 319 322 323 323 321 320 319 315 315 316 325 334
302 302 302 301 301 301 301 301 301 301 301 301 301 302 302 302 302 303 303 304 305 306 308 309 310 310 311 312 313 316 320 321 322 323 322 320 319 318 317 316 313 314 317
302 301 301 301 300 300 300 300 300 300 300 300 300 301 301 301 301 301 301 301 302 303 305 307 310 309 311 315 320 322 322 322 321 320 321 321 321 318 317 316 316 315 313
301 301 301 300 300 300 300 300 300 300 300 299 299 299 299 300 300 300 300 300 300 301 302 304 306 310 311 313 315 316 317 318 319 319 318 316 317 317 317 316 315 314 314
301 301 300 300 300 300 300 299 299 299 299 299 298 298 298 298 298 298 298 298 298 299 300 303 306 306 308 308 310 312 312 313 314 315 315 315 315 315 315 314 314 313 312
302 301 300 300 300 300 299 299 298 298 298 298 297 297 297 297 297 297 297 297 296 296 297 298 302 303 304 306 306 307 308 309 309 310 310 311 311 313 313 313 313 312 312
302 302 301 300 300 300 299 299 298 298 298 297 297 296 296 296 296 296 296 296 296 295 294 295 296 297 300 300 302 302 303 304 303 304 306 307 308 309 310 310 311 311 311
302 301 301 301 300 300 299 299 298 298 298 297 296 296 295 295 295 295 295 296 295 295 295 293 293 295 297 296 297 298 299 300 300 300 300 302 304 306 307 308 309 310 310
303 301 301 301 301 300 299 298 299 299 299 297 296 295 295 295 295 295 294 294 294 294 294 294 294 294 294 295 296 296 296 297 298 300 301 302 303 304 305 306 307 308 309
303 302 302 302 301 300 299 299 299 300 299 297 297 296 295 294 294 294 294 293 293 293 293 293 293 293 294 294 295 296 298 299 300 300 300 300 300 301 302 303 305 306 307
Wind_Speed
23 21 19 14 13 11 9 17 14 12 11 12 12 11 11 11 10 12 14 12 13 13 12 12 11 11 11 11 12 11 12 13 14 17 18 20 20 16 14 13 14 16 18
21 21 20 16 15 13 12 9 10 11 12 13 11 13 12 13 13 13 12 13 11 11 11 11 11 12 13 14 13 11 10 10 12 15 15 14 13 13 13 13 13 16 19
22 20 20 17 16 17 15 15 14 13 11 11 11 6 7 9 10 13 12 12 11 10 11 9 8 9 10 10 9 7 6 7 10 13 14 13 13 13 13 12 13 12 14
22 20 15 13 14 16 17 18 17 16 15 13 11 10 8 8 10 11 11 10 9 8 9 12 11 10 8 7 8 8 7 10 12 13 15 14 14 14 16 17 14 12 12
15 18 8 7 10 14 17 18 20 17 16 16 15 13 11 13 12 15 13 12 13 12 12 10 11 11 11 11 12 11 12 13 13 15 16 18 17 15 15 16 16 16 15
26 22 11 9 9 8 15 15 20 19 18 17 17 18 17 15 16 15 16 16 15 15 15 14 15 14 13 14 14 13 14 15 16 17 18 20 20 20 20 20 20 22 23
21 20 19 11 9 7 9 10 14 14 15 18 17 16 17 18 17 17 18 18 18 18 18 18 17 17 17 17 17 16 16 16 17 19 21 21 23 23 25 25 25 26 27
18 16 13 8 6 9 8 7 7 6 6 11 14 13 11 15 18 19 19 18 20 20 20 20 21 20 20 20 20 21 21 21 21 22 24 25 26 26 26 26 27 28 29
18 15 11 9 7 6 6 6 5 6 6 4 8 6 3 6 11 15 21 22 22 24 24 25 25 24 25 24 25 26 27 26 25 26 26 26 25 24 23 25 25 25 29
13 12 10 8 7 6 5 3 3 2 3 3 4 5 6 6 7 11 12 12 12 15 22 22 24 26 26 25 25 25 27 27 27 27 26 25 24 24 22 25 26 27 27
8 6 5 5 5 4 4 3 3 2 2 1 1 2 4 6 7 4 4 4 4 5 8 12 17 17 17 18 18 18 20 23 23 25 27 27 25 24 25 26 26 27 28
3 3 3 3 2 1 1 1 1 1 1 2 1 1 0 2 6 11 14 12 12 11 11 10 11 13 16 16 17 18 19 20 21 22 24 25 25 26 26 25 25 24 24
2 3 3 2 2 2 3 4 4 5 5 4 5 4 3 6 9 9 9 10 12 13 13 13 14 14 15 15 16 18 20 21 22 23 25 26 26 27 26 26 26 26 27
2 2 2 2 3 4 4 5 6 6 7 7 8 8 8 9 10 12 12 14 15 16 17 16 16 17 16 16 17 17 18 20 21 22 23 24 24 24 25 24 26 26 28
1 2 1 1 1 2 3 4 5 6 6 7 8 10 11 12 12 13 14 15 16 18 20 20 20 19 19 19 19 19 18 19 20 21 22 23 24 25 26 22 22 24 24
1 1 1 1 0 0 0 2 3 4 6 7 9 10 11 15 17 17 18 20 21 23 23 25 24 23 23 23 23 21 21 19 18 19 20 21 22 23 24 24 23 19 24
2 2 2 2 2 2 2 2 1 2 3 6 8 11 13 15 17 19 21 23 23 24 25 27 28 28 27 27 27 26 25 24 23 23 24 24 25 25 26 25 26 26 28
2 2 2 3 4 5 6 6 7 7 6 7 8 9 12 15 16 19 21 23 23 22 24 26 28 27 27 27 27 26 24 24 25 26 28 28 29 30 30 28 28 28 28
3 1 0 1 3 5 6 8 9 11 12 13 12 13 17 18 19 19 20 21 21 22 22 22 22 24 23 22 21 23 25 25 25 27 27 29 32 33 32 31 31 31 32
4 3 2 1 2 4 5 8 11 13 16 18 21 24 25 26 25 25 24 23 24 23 21 22 22 21 20 22 24 27 29 28 27 27 28 28 30 31 33 35 37 37 36
6 4 3 2 3 5 7 10 13 16 18 20 22 24 27 29 30 31 30 28 25 23 24 23 21 25 27 30 30 30 32 34 33 30 30 31 31 35 37 37 39 41 42
9 7 5 5 5 5 7 10 13 16 19 22 25 28 30 32 33 32 31 30 29 29 25 26 29 28 29 33 35 36 38 38 39 38 37 37 37 38 39 40 42 44 47
10 9 8 6 6 7 9 12 15 18 21 25 28 30 33 35 35 34 34 33 31 30 27 28 28 28 30 33 39 41 43 44 44 45 46 45 44 44 43 44 44 44 45
11 10 9 8 9 10 10 12 14 18 23 26 28 30 34 37 36 36 35 34 32 30 29 27 27 26 25 26 27 29 34 40 45 50 51 49 46 44 44 44 45 43 43
11 10 9 10 11 11 11 12 14 18 22 25 27 29 32 36 35 35 36 34 32 29 28 28 28 28 28 27 28 30 33 33 32 33 35 38 41 43 44 44 44 43 43
13 11 9 10 12 12 12 12 15 19 20 23 26 29 31 35 35 34 34 32 30 29 29 29 29 28 28 29 31 31 31 31 31 30 30 33 37 40 41 43 43 43 44
Wind_Direction
224 223 221 223 234 232 246 213 212 212 213 220 218 228 229 234 245 236 236 240 238 248 250 249 251 262 275 279 291 307 309 309 310 311 317 318 323 324 326 319 320 329 333
224 220 223 227 231 237 241 233 213 217 233 228 241 237 240 231 242 236 233 234 238 241 241 255 255 262 270 276 281 293 303 309 319 320 328 333 337 333 336 327 318 323 327
214 216 225 233 235 236 235 241 236 239 244 241 233 239 220 227 242 237 235 232 236 239 234 253 254 264 264 260 267 278 293 312 318 321 328 337 345 345 338 335 327 326 328
195 202 213 232 242 245 244 239 237 241 240 242 249 257 251 246 240 231 237 244 249 249 247 247 247 258 262 261 264 260 275 303 307 308 316 323 330 338 340 341 335 338 337
192 197 211 290 268 252 251 250 239 238 240 240 240 245 247 251 250 247 247 254 258 262 263 261 259 262 262 270 275 266 273 290 299 304 309 314 317 322 327 331 328 327 327
208 213 245 289 278 262 231 232 241 235 235 237 241 243 247 246 243 243 243 253 253 257 261 259 260 259 262 270 272 276 278 285 290 297 300 302 308 311 315 316 315 317 317
187 209 240 249 225 197 175 195 211 233 240 236 237 242 241 245 251 250 252 258 260 262 264 265 263 262 265 270 274 276 272 277 282 289 291 294 296 300 301 301 302 301 301
182 196 203 203 197 202 206 188 204 262 284 275 256 261 254 251 254 255 255 259 267 269 271 272 275 274 268 269 272 272 274 277 280 282 286 290 291 294 295 298 299 301 299
143 147 148 152 161 158 164 154 189 211 224 245 249 245 259 273 279 275 271 263 263 265 266 268 270 271 272 273 275 278 280 280 280 279 281 286 288 291 295 293 294 296 298
126 128 133 135 135 137 131 132 149 193 187 201 237 267 282 324 300 288 288 285 298 291 275 269 264 266 269 269 270 274 278 282 281 280 280 282 284 287 289 292 294 293 294
120 123 134 143 144 134 121 122 102 83 65 56 320 244 222 274 322 341 259 249 272 296 300 280 271 268 268 272 276 275 275 278 281 283 284 281 280 281 281 282 283 281 282
138 171 186 194 182 191 266 276 249 219 217 162 187 260 293 223 271 298 314 322 311 285 290 295 287 282 278 283 285 287 287 285 285 286 287 288 287 285 281 278 279 276 275
186 210 223 240 248 252 250 248 251 254 250 238 219 207 206 222 233 249 268 293 287 289 287 287 282 287 284 284 285 284 284 286 286 285 285 286 289 290 288 286 281 281 280
145 171 203 243 260 265 264 264 267 267 273 269 263 256 253 256 256 259 265 268 276 281 286 292 294 292 295 294 291 289 288 287 288 288 289 292 294 293 294 296 294 292 287
87 108 134 188 234 269 278 288 294 292 282 282 287 285 279 276 281 284 280 273 279 285 287 292 294 294 294 290 291 293 293 288 285 287 289 291 294 297 299 304 307 300 304
77 95 89 90 112 164 347 322 332 315 306 306 302 292 290 291 288 285 282 282 284 285 289 292 292 293 294 295 295 295 293 294 292 292 297 304 303 301 300 295 289 312 304
349 20 41 48 49 35 25 47 88 359 309 291 287 289 294 291 289 290 289 286 288 289 289 288 287 288 290 291 294 296 293 293 294 300 302 304 309 313 310 306 305 294 286
303 321 358 18 28 32 29 24 13 1 354 342 328 311 302 302 302 301 297 294 293 291 290 289 289 290 291 289 287 286 282 283 286 291 295 301 306 309 311 314 311 310 304
275 255 181 31 25 22 18 12 8 3 356 352 343 333 327 327 324 318 313 308 302 295 292 293 294 292 290 287 284 281 279 280 286 288 289 295 301 303 306 310 312 314 315
240 241 261 324 348 356 356 356 354 353 351 349 346 343 337 334 329 325 322 317 311 306 298 288 288 293 291 285 280 277 278 282 283 286 288 291 296 298 303 307 310 312 311
238 240 247 273 310 335 350 352 352 350 349 348 346 343 339 336 331 327 323 318 311 304 292 284 282 282 279 276 276 276 276 278 281 285 286 289 287 290 293 300 303 305 307
231 236 246 264 293 320 336 346 350 350 348 346 345 343 341 339 334 329 325 319 314 309 301 280 267 268 273 271 274 276 278 278 280 284 286 287 287 282 284 289 296 298 301
233 242 251 269 287 302 318 333 340 344 346 345 343 341 341 338 334 330 325 320 316 311 305 299 291 274 271 272 269 270 275 279 282 282 281 282 282 282 283 283 285 288 291
229 240 246 271 288 294 306 318 330 337 340 341 342 340 339 337 333 332 327 321 316 312 310 306 300 296 296 292 290 284 280 276 275 277 279 280 281 280 281 281 278 278 284
235 235 252 269 281 286 298 311 321 326 333 336 339 338 338 337 331 327 327 322 317 313 312 310 308 300 296 295 290 291 292 291 288 286 281 277 276 277 278 280 281 279 278
247 242 255 276 287 284 286 303 315 321 323 330 333 335 333 336 335 330 325 322 319 318 316 315 312 307 302 297 294 292 290 287 284 282 284 284 283 281 281 281 281 280 281